Flag for U.S.A. Weather past 2 weeks in Neenah, Wisconsin, U.S.A.

Now
72 °F

Passing clouds.


Feels Like: 77 °F
Forecast: 64 / 81 °F
Wind: 3 mph from West

Location: Appleton / Outagamie

Current Time: Jul 30, 2015 at 11:03:31 PM

Latest Report: Jul 30, 2015 at 9:45 PM


Visibility: 10 mi

Pressure: 29.97 "Hg

Humidity: 53%

Dew point: 54 °F

Location of NeenahLocation

Historic Weather in Neenah — Graph

°F

Neenah temperature yesterday

Maximum temperature yesterday: 82 °F (at 1:45 PM)
Minimum temperature yesterday: 68 °F (at 11:15 PM)
Average temperature yesterday: 75 °F

Past Weeks' High & Low Weather Summary

 TemperatureHumidityPressure
High88 °F (Jul 18, 5:45 PM)100% (Jul 16, 7:45 PM)30.07 "Hg (Jul 16, 7:45 PM)
Low55 °F (Jul 16, 3:55 AM)26% (Jul 29, 4:45 PM)29.70 "Hg (Jul 20, 3:45 PM)
Average71 °F69%29.91 "Hg
* Reported Jul 15 8:45 PM — Jul 30 8:45 PM, Neenah, Weather by CustomWeather, © 2015

Note: Actual official high and low records may vary slightly from our data, if they occured in-between our weather recording intervals... More about our weather records

Advertising

Neenah weather history for previous 24 hours

 ConditionsComfort  
Time TempWeatherWind HumidityBarometerVisibility
8:45 PM
Thu, Jul 30
73 °FScattered clouds.6 mph47%29.96 "Hg10 mi
7:45 PM75 °FScattered clouds.3 mph44%29.96 "Hg10 mi
5:45 PM82 °FScattered clouds.17 mph30%29.96 "Hg10 mi
4:45 PM84 °FScattered clouds.21 mph27%29.95 "Hg10 mi
3:45 PM84 °FPartly sunny.17 mph29%29.96 "Hg10 mi
2:45 PM82 °FPartly sunny.16 mph35%29.97 "Hg10 mi
1:45 PM82 °FPartly sunny.20 mph35%29.98 "Hg10 mi
12:45 PM82 °FPartly sunny.17 mph35%29.99 "Hg10 mi
11:45 AM81 °FScattered clouds.16 mph39%30.00 "Hg10 mi
10:45 AM77 °FSunny.14 mph47%29.99 "Hg10 mi
9:45 AM75 °FSunny.15 mph50%29.99 "Hg10 mi
8:45 AM72 °FSunny.13 mph57%29.99 "Hg10 mi
7:45 AM66 °FSunny.10 mph68%29.98 "Hg10 mi
6:45 AM63 °FSunny.8 mph73%29.97 "Hg10 mi
5:45 AM61 °FClear.6 mph77%29.96 "Hg10 mi
4:55 AM61 °FClear.8 mph72%29.96 "Hg10 mi
4:15 AM61 °FClear.7 mph72%29.95 "Hg10 mi
3:55 AM61 °FClear.7 mph72%29.95 "Hg10 mi
3:35 AM63 °FClear.9 mph68%29.95 "Hg10 mi
3:15 AM63 °FClear.8 mph68%29.95 "Hg10 mi
2:55 AM63 °FClear.9 mph68%29.94 "Hg10 mi
2:35 AM63 °FClear.8 mph68%29.95 "Hg10 mi
2:15 AM64 °FClear.9 mph64%29.95 "Hg10 mi
1:55 AM64 °FClear.8 mph68%29.94 "Hg10 mi
1:35 AM64 °FClear.10 mph64%29.94 "Hg10 mi
1:15 AM64 °FClear.9 mph68%29.94 "Hg10 mi
12:55 AM66 °FClear.9 mph64%29.94 "Hg10 mi
12:35 AM68 °FClear.9 mph56%29.94 "Hg10 mi
12:15 AM68 °FClear.9 mph56%29.94 "Hg10 mi
11:55 PM
Wed, Jul 29
68 °FClear.9 mph56%29.94 "Hg10 mi
11:15 PM68 °FClear.8 mph56%29.94 "Hg10 mi
Weather by CustomWeather, © 2015

See weather overviewHow to use our weather pages